Starlink 11243

operational
NORAD ID: 60927 Int'l Des: 2024-155 Owner: SPXS Country: US Constellation: starlink
LEOCIRCULAR

Über Starlink 11243

Beschreibung wird geladen...

Live-Position

3D-Globus wird geladen...

Nächste Überflüge

Höhenverlauf

Altitude vs Time

uPlot chart will show altitude changes over time

Zweizeiliger Elementsatz

1 60927U 24155D 25351.51213504 -.00001215 00000-0 -51762-5 0 9995
2 60927 53.1589 26.4944 0001087 65.6897 294.4234 15.69705577 75498
Epoch: 17. Dez. 2025 • Age: 20 hours

Aktueller Status

Höhe 366.7 km
Geschwindigkeit 7.69 km/s
Subsatellitenpunkt -23.91°S, 155.55°E
Startdatum 31. Aug. 2024
Alter 1.2 years
Typ internet

Technische Details

Klassifizierung Payload
Masse 960.00 kg
Trockenmasse 910.00 kg
Gesamtmasse 960.00 kg
Länge 0.30 m
Durchmesser 4.10 m
Spannweite 29.00 m
Form Box + pan
Hersteller SPXS
Bus-Typ Starlink V2MD
Phasenstatus In Orbit
Besitzer/Staat SPXS/US

Große Konstellationen

Loading constellations...